Regional Weather Roundup
Issued by NWS Sioux Falls, SD

Home | Current Version | Previous Version | Text Only | Print | Product List | Glossary On
Versions: 1 2 3 4 5 6 7 8 9 10 11 12 13 14 15 16 17 18 19 20 21 22 23 24 25 26 27 28 29 30 31 32 33 34 35 36 37 38 39 40 41 42 43 44 45 46 47 48 49 50
000
ASUS43 KFSD 210210
RWRFSD

WEATHER ROUNDUP FOR SE SOUTH DAKOTA/SW MINNESOTA/NW IOWA
NATIONAL WEATHER SERVICE SIOUX FALLS SD
900 PM CDT FRI APR 20 2018

NOTE: "FAIR" INDICATES FEW OR NO CLOUDS BELOW 12,000 FEET WITH NO
SIGNIFICANT WEATHER AND OR OBSTRUCTIONS TO VISIBILITY.


SDZ038>040-050-052>070-210300-
SOUTHEAST SOUTH DAKOTA

CITY           SKY/WX    TMP DP  RH WIND       PRES   REMARKS
BROOKINGS      MOCLDY    40  36  86 SE8       30.39R
CHAMBERLAIN    RAIN      44  44 100 SE3       30.36R
HURON          CLOUDY    44  37  76 SE10      30.35R
MADISON        CLOUDY    39  39 100 E7        30.38R
MITCHELL       CLOUDY    41  36  82 E7        30.37R
SIOUX FALLS    CLOUDY    42  36  79 E7        30.38R
WINNER         CLOUDY    41  36  82 E6        30.33S
YANKTON        CLOUDY    47  39  74 E10       30.36R
$$

MNZ071-072-080-081-089-090-097-098-210300-
SOUTHWEST MINNESOTA

CITY           SKY/WX    TMP DP  RH WIND       PRES   REMARKS
FAIRMONT       CLOUDY    38  27  64 E5        30.42S
JACKSON        CLOUDY    34  30  86 E6        30.42S WCI  29
LUVERNE        CLOUDY    37  32  81 E3        30.40R
MARSHALL       CLOUDY    37  31  78 SE6       30.42S
MONTEVIDEO     CLOUDY    37  30  75 S5        30.42F
PIPESTONE      CLOUDY   N/A N/A N/A E6        30.39R
REDWOOD FALLS  CLOUDY    37  31  78 SE6       30.42F
TRACY          CLOUDY    37  32  81 S3        30.41S
WINDOM         CLOUDY    36  19  51 CALM      30.42R
WORTHINGTON    CLOUDY    35  31  85 E5        30.41R
$$

IAZ001>003-012>014-020>022-031-032-NEZ013-014-SDZ071-210300-
NORTHWEST IOWA

CITY           SKY/WX    TMP DP  RH WIND       PRES   REMARKS
CHEROKEE       CLOUDY    39  34  81 NE6       30.40R
DENISON        CLOUDY    50  32  50 E9        30.37R
ESTHERVILLE    CLOUDY    34  29  82 NE7       30.40S WCI  28
LE MARS        CLOUDY    43  36  75 NE12G18   30.38R
ORANGE CITY    CLOUDY    39  37  93 E7        30.39R
SHELDON        CLOUDY    39  36  87 E9        30.39R
SIOUX CITY     CLOUDY    47  35  63 E14       30.35R
SPENCER        CLOUDY    37  30  75 E8        30.40R
STORM LAKE     CLOUDY    39  34  81 NE12      30.39R
$$

ABBREVIATIONS USED IN REMARKS
   TC - TEMPERATURE IN CELSIUS
  WCI - WIND CHILL INDEX
   HX - HEAT INDEX
  VSB - VISIBILITY





USA.gov is the U.S. government's official web portal to all federal, state and local government web resources and services.